# Mixing ratio of CO2 (xCO2) in dry air measured onboard R/V Ryofu-maru of the Japan Meteorological Agency.,,,,,,,,,,,,,,,,,,,,,,
"# Version 1.0; 16 April, 2004.",,,,,,,,,,,,,,,,,,,,,,
# Measured by Meteorological Research Institute. ,,,,,,,,,,,,,,,,,,,,,,
# PI : H. Y. Inoue,,,,,,,,,,,,,,,,,,,,,,
# Concetrarion scale = MRI87,,,,,,,,,,,,,,,,,,,,,,
# Date and Time = UTC,,,,,,,,,,,,,,,,,,,,,,
Ship,Cruise,Serial No.,Date,,,Time,,Latitude,Longitude,xCO2_Air,F,xCO2_Sea,F,Wind_Dir,Wind_Spd,Atm_Prs,Atm_Tmp.,SST,F,SSS,F,pH2O
,,,Year,Month,Day,Hour,Min.,Deg.,Deg.,ppm,,ppm,,Deg.,m/s,hPa,deg.C,deg.C,,,,hPa
Ryofu-maru_MRI,Ry8801,1,1988,1,16,7,,34.917,139.083,362.8,4,312.3,2,-99,-9.9,1010.8,-99.9,16.5,2,-9.999,9,18.41
Ryofu-maru_MRI,Ry8801,2,1988,1,16,8,,34.85,139.15,360.8,4,308.6,2,-99,-9.9,1010.9,-99.9,17,2,-9.999,9,19
Ryofu-maru_MRI,Ry8801,3,1988,1,16,9,,34.767,139.233,353.3,2,300.3,2,-99,-9.9,1010.8,-99.9,17.3,2,-9.999,9,19.37
Ryofu-maru_MRI,Ry8801,4,1988,1,16,10,,34.683,139.133,364.4,4,299.4,2,-99,-9.9,1010.7,-99.9,17.6,2,-9.999,9,19.74
Ryofu-maru_MRI,Ry8801,5,1988,1,16,11,,34.583,139.05,-99.9,2,310,2,-99,-9.9,1010.6,-99.9,17.6,2,-9.999,9,19.74
Ryofu-maru_MRI,Ry8801,6,1988,1,16,12,,34.5,138.95,-99.9,2,305.7,2,-99,-9.9,1010.8,-99.9,17.1,2,-9.999,9,19.12
Ryofu-maru_MRI,Ry8801,7,1988,1,16,13,,34.45,138.8,-99.9,2,311.3,2,-99,-9.9,1011.3,-99.9,17.3,2,-9.999,9,19.37
Ryofu-maru_MRI,Ry8801,8,1988,1,16,14,,34.383,138.65,-99.9,2,312.2,2,-99,-9.9,1012.1,-99.9,16.8,2,-9.999,9,18.76
Ryofu-maru_MRI,Ry8801,9,1988,1,16,15,,34.333,138.5,-99.9,2,308.8,2,-99,-9.9,1012.9,-99.9,16.8,2,-9.999,9,18.76
Ryofu-maru_MRI,Ry8801,10,1988,1,16,16,,34.267,138.333,-99.9,2,308.4,2,-99,-9.9,1013.6,-99.9,16.9,2,-9.999,9,18.88
Ryofu-maru_MRI,Ry8801,11,1988,1,16,17,,34.2,138.167,-99.9,2,306.3,2,-99,-9.9,1014,-99.9,16.7,2,-9.999,9,18.65
Ryofu-maru_MRI,Ry8801,12,1988,1,16,18,,34.133,138,-99.9,2,305.7,2,-99,-9.9,1014.3,-99.9,16.8,2,-9.999,9,18.76
Ryofu-maru_MRI,Ry8801,13,1988,1,16,19,,34.067,137.8,-99.9,2,303.7,2,-99,-9.9,1014.4,-99.9,16.8,2,-9.999,9,18.76
Ryofu-maru_MRI,Ry8801,14,1988,1,16,20,,34.017,137.617,-99.9,2,297.2,2,-99,-9.9,1014.5,-99.9,17.4,2,-9.999,9,19.49
Ryofu-maru_MRI,Ry8801,15,1988,1,16,21,,33.95,137.417,-99.9,2,306.1,2,-99,-9.9,1014.9,-99.9,17.6,2,-9.999,9,19.74
Ryofu-maru_MRI,Ry8801,16,1988,1,16,22,,33.917,137.283,-99.9,2,308,2,-99,-9.9,1015.7,-99.9,17.5,2,-9.999,9,19.61
Ryofu-maru_MRI,Ry8801,17,1988,1,16,23,,33.867,137.15,-99.9,2,308,2,-99,-9.9,1016.6,-99.9,17.5,2,-9.999,9,19.61
Ryofu-maru_MRI,Ry8801,18,1988,1,17,0,,33.833,137.017,356.2,2,307.4,2,-99,-9.9,1017.3,-99.9,17.5,2,-9.999,9,19.61
Ryofu-maru_MRI,Ry8801,19,1988,1,17,1,,33.7,137.017,356.4,2,297.7,2,-99,-9.9,1017.4,-99.9,17.5,2,-9.999,9,19.61
Ryofu-maru_MRI,Ry8801,20,1988,1,17,2,,33.55,137,355.2,2,300.4,2,-99,-9.9,1017,-99.9,18.7,2,-9.999,9,21.15
Ryofu-maru_MRI,Ry8801,21,1988,1,17,3,,33.417,137,354.7,2,303.6,2,-99,-9.9,1016.3,-99.9,20.2,2,-9.999,9,23.22
Ryofu-maru_MRI,Ry8801,22,1988,1,17,4,,33.35,137,355.9,2,301.1,2,-99,-9.9,1015.5,-99.9,20.2,2,-9.999,9,23.22
Ryofu-maru_MRI,Ry8801,23,1988,1,17,5,,33.283,137,356.3,2,297.5,2,-99,-9.9,1014.9,-99.9,20.1,2,-9.999,9,23.08
Ryofu-maru_MRI,Ry8801,24,1988,1,17,6,,33.217,137,357.3,4,309.9,2,-99,-9.9,1014.6,-99.9,20.3,2,-9.999,9,23.36
Ryofu-maru_MRI,Ry8801,25,1988,1,17,7,,33.033,137,357.1,4,304.7,2,-99,-9.9,1014.7,-99.9,19.5,2,-9.999,9,22.23
Ryofu-maru_MRI,Ry8801,26,1988,1,17,8,,32.85,137,355.2,2,298.1,2,-99,-9.9,1015.1,-99.9,20,2,-9.999,9,22.93
Ryofu-maru_MRI,Ry8801,27,1988,1,17,9,,32.667,137,357.1,4,297.7,2,-99,-9.9,1015.4,-99.9,21.4,2,-9.999,9,25
Ryofu-maru_MRI,Ry8801,28,1988,1,17,10,,32.633,137.05,356.9,4,297.4,2,-99,-9.9,1015.4,-99.9,21.4,2,-9.999,9,25
Ryofu-maru_MRI,Ry8801,29,1988,1,17,11,,32.583,137.1,357.8,4,296.2,2,-99,-9.9,1015.2,-99.9,21.3,2,-9.999,9,24.85
Ryofu-maru_MRI,Ry8801,30,1988,1,17,12,,32.55,137.15,355.8,2,289.2,2,-99,-9.9,1015,-99.9,21.3,2,-9.999,9,24.85
Ryofu-maru_MRI,Ry8801,31,1988,1,17,13,,32.367,137.1,354.8,2,289.7,2,-99,-9.9,1014.9,-99.9,20.7,2,-9.999,9,23.95
Ryofu-maru_MRI,Ry8801,32,1988,1,17,14,,32.183,137.05,354.1,2,288.7,2,-99,-9.9,1014.9,-99.9,20.9,2,-9.999,9,24.25
Ryofu-maru_MRI,Ry8801,33,1988,1,17,15,,32,137,355.3,2,291.4,2,-99,-9.9,1014.8,-99.9,21,2,-9.999,9,24.39
Ryofu-maru_MRI,Ry8801,34,1988,1,17,16,,31.933,137.033,354.4,2,293.6,2,-99,-9.9,1014.5,-99.9,21.2,2,-9.999,9,24.7
Ryofu-maru_MRI,Ry8801,35,1988,1,17,17,,31.85,137.083,353.9,2,292.1,2,-99,-9.9,1014.2,-99.9,21.3,2,-9.999,9,24.85
Ryofu-maru_MRI,Ry8801,36,1988,1,17,18,,31.783,137.117,353.6,2,291.8,2,-99,-9.9,1013.9,-99.9,20.8,2,-9.999,9,24.1
Ryofu-maru_MRI,Ry8801,37,1988,1,17,19,,31.567,137.083,353.2,4,296.5,2,-99,-9.9,1013.9,-99.9,21.5,2,-9.999,9,25.15
Ryofu-maru_MRI,Ry8801,38,1988,1,17,20,,31.35,137.033,355,2,296.6,2,-99,-9.9,1014.1,-99.9,21.6,2,-9.999,9,25.31
Ryofu-maru_MRI,Ry8801,39,1988,1,17,21,,31.133,137,354.2,2,296.5,2,-99,-9.9,1014.7,-99.9,21.6,2,-9.999,9,25.31
Ryofu-maru_MRI,Ry8801,40,1988,1,17,22,,31.033,137,355.3,2,298,2,-99,-9.9,1015.5,-99.9,21.6,2,-9.999,9,25.31
Ryofu-maru_MRI,Ry8801,41,1988,1,17,23,,30.933,137.017,356,2,293.7,2,-99,-9.9,1016.4,-99.9,21.6,2,-9.999,9,25.31
Ryofu-maru_MRI,Ry8801,42,1988,1,18,0,,30.833,137.017,361.1,4,309.4,2,-99,-9.9,1017.1,-99.9,21.2,2,-9.999,9,24.7
Ryofu-maru_MRI,Ry8801,43,1988,1,18,1,,30.617,137.017,350.8,4,306.9,2,-99,-9.9,1017.4,-99.9,20.7,2,-9.999,9,23.95
Ryofu-maru_MRI,Ry8801,44,1988,1,18,2,,30.383,137.017,364.6,4,302.8,2,-99,-9.9,1017.4,-99.9,20.6,2,-9.999,9,23.8
Ryofu-maru_MRI,Ry8801,45,1988,1,18,3,,30.167,137.017,352.7,4,289,2,-99,-9.9,1017.3,-99.9,21.1,2,-9.999,9,24.55
Ryofu-maru_MRI,Ry8801,46,1988,1,18,4,,30.1,137.017,355.5,2,291.1,2,-99,-9.9,1017.3,-99.9,21,2,-9.999,9,24.39
Ryofu-maru_MRI,Ry8801,47,1988,1,18,5,,30.017,137.017,355.2,2,291.2,2,-99,-9.9,1017.5,-99.9,21,2,-9.999,9,24.39
Ryofu-maru_MRI,Ry8801,48,1988,1,18,6,,29.95,137.017,355.1,2,291,2,-99,-9.9,1017.7,-99.9,21,2,-9.999,9,24.39
Ryofu-maru_MRI,Ry8801,49,1988,1,18,7,,29.933,137.017,355,2,290,2,-99,-9.9,1018,-99.9,21,2,-9.999,9,24.39
Ryofu-maru_MRI,Ry8801,50,1988,1,18,8,,29.9,137.033,354,2,290,2,-99,-9.9,1018.4,-99.9,21,2,-9.999,9,24.39
Ryofu-maru_MRI,Ry8801,51,1988,1,18,9,,29.883,137.033,353.6,2,289,2,-99,-9.9,1019,-99.9,20.9,2,-9.999,9,24.25
Ryofu-maru_MRI,Ry8801,52,1988,1,18,10,,29.867,137.033,353.7,2,289.7,2,-99,-9.9,1019.8,-99.9,20.9,2,-9.999,9,24.25
Ryofu-maru_MRI,Ry8801,53,1988,1,18,11,,29.85,137.033,354,2,293,2,-99,-9.9,1020.6,-99.9,20.9,2,-9.999,9,24.25
Ryofu-maru_MRI,Ry8801,54,1988,1,18,12,,29.833,137.033,354.4,2,290,2,-99,-9.9,1021.3,-99.9,21.1,2,-9.999,9,24.55
Ryofu-maru_MRI,Ry8801,55,1988,1,18,13,,29.617,137.017,356,4,291.6,2,-99,-9.9,1021.8,-99.9,20.6,2,-9.999,9,23.8
Ryofu-maru_MRI,Ry8801,56,1988,1,18,14,,29.417,137.017,354.4,2,290,2,-99,-9.9,1022.1,-99.9,20.6,2,-9.999,9,23.8
Ryofu-maru_MRI,Ry8801,57,1988,1,18,15,,29.2,137,355.2,2,291.3,2,-99,-9.9,1022.1,-99.9,20.6,2,-9.999,9,23.8
Ryofu-maru_MRI,Ry8801,58,1988,1,18,16,,29.133,137,353.7,2,290.2,2,-99,-9.9,1021.9,-99.9,20.5,2,-9.999,9,23.65
Ryofu-maru_MRI,Ry8801,59,1988,1,18,17,,29.05,137,355.3,2,292.4,2,-99,-9.9,1021.6,-99.9,20.5,2,-9.999,9,23.65
Ryofu-maru_MRI,Ry8801,60,1988,1,18,18,,28.983,137,353.2,2,293.1,2,-99,-9.9,1021.3,-99.9,20.6,2,-9.999,9,23.8
Ryofu-maru_MRI,Ry8801,61,1988,1,18,19,,28.767,137,354,2,291.4,2,-99,-9.9,1021.1,-99.9,20.6,2,-9.999,9,23.8
Ryofu-maru_MRI,Ry8801,62,1988,1,18,20,,28.567,136.983,354.6,2,291.6,2,-99,-9.9,1021.1,-99.9,20.6,2,-9.999,9,23.8
Ryofu-maru_MRI,Ry8801,63,1988,1,18,21,,28.35,136.983,353.1,2,293.5,2,-99,-9.9,1021.3,-99.9,20.8,2,-9.999,9,24.1
Ryofu-maru_MRI,Ry8801,64,1988,1,18,22,,28.233,136.983,353.9,2,292.3,2,-99,-9.9,1021.8,-99.9,20.8,2,-9.999,9,24.1
Ryofu-maru_MRI,Ry8801,65,1988,1,18,23,,28.1,137,353.5,2,290,2,-99,-9.9,1022.4,-99.9,20.8,2,-9.999,9,24.1
Ryofu-maru_MRI,Ry8801,66,1988,1,19,0,,27.983,137,354,2,291.9,2,-99,-9.9,1022.8,-99.9,20.9,2,-9.999,9,24.25
Ryofu-maru_MRI,Ry8801,67,1988,1,19,1,,27.783,137,353.6,2,289.5,2,-99,-9.9,1022.8,-99.9,20.8,2,-9.999,9,24.1
Ryofu-maru_MRI,Ry8801,68,1988,1,19,2,,27.567,137,353.5,2,286.3,2,-99,-9.9,1022.4,-99.9,21.6,2,-9.999,9,25.31
Ryofu-maru_MRI,Ry8801,69,1988,1,19,3,,27.367,137,354.4,2,294.5,2,-99,-9.9,1021.8,-99.9,22,2,-9.999,9,25.94
Ryofu-maru_MRI,Ry8801,70,1988,1,19,4,,27.233,137,353.5,2,291,2,-99,-9.9,1021.2,-99.9,22.4,2,-9.999,9,26.57
Ryofu-maru_MRI,Ry8801,71,1988,1,19,5,,27.117,136.983,354.3,2,290.9,2,-99,-9.9,1020.7,-99.9,22.6,2,-9.999,9,26.9
Ryofu-maru_MRI,Ry8801,72,1988,1,19,6,,26.983,136.983,353.8,2,292.9,2,-99,-9.9,1020.6,-99.9,22.3,2,-9.999,9,26.41
Ryofu-maru_MRI,Ry8801,73,1988,1,19,7,,26.867,136.983,354.7,2,296,2,-99,-9.9,1021,-99.9,22.2,2,-9.999,9,26.25
Ryofu-maru_MRI,Ry8801,74,1988,1,19,8,,26.733,137,354.9,2,296.3,2,-99,-9.9,1021.6,-99.9,23.2,2,-9.999,9,27.9
Ryofu-maru_MRI,Ry8801,75,1988,1,19,9,,26.617,137,353.6,2,297.9,2,-99,-9.9,1022,-99.9,23.2,2,-9.999,9,27.9
Ryofu-maru_MRI,Ry8801,76,1988,1,19,10,,26.417,137,351.8,4,293.9,2,-99,-9.9,1022,-99.9,23.3,2,-9.999,9,28.06
Ryofu-maru_MRI,Ry8801,77,1988,1,19,11,,26.2,137,354.5,2,297.6,2,-99,-9.9,1021.6,-99.9,23,2,-9.999,9,27.56
Ryofu-maru_MRI,Ry8801,78,1988,1,19,12,,26,137,353.8,2,294.4,2,-99,-9.9,1021.1,-99.9,22.8,2,-9.999,9,27.23
Ryofu-maru_MRI,Ry8801,79,1988,1,19,13,,25.9,137,354.9,2,297.8,2,-99,-9.9,1020.7,-99.9,22.8,2,-9.999,9,27.23
Ryofu-maru_MRI,Ry8801,80,1988,1,19,14,,25.783,136.983,354.2,2,297.6,2,-99,-9.9,1020.4,-99.9,22.8,2,-9.999,9,27.23
Ryofu-maru_MRI,Ry8801,81,1988,1,19,15,,25.683,136.983,354.4,2,295.7,2,-99,-9.9,1020.1,-99.9,22.8,2,-9.999,9,27.23
Ryofu-maru_MRI,Ry8801,82,1988,1,19,16,,25.45,136.983,354.1,2,300,2,-99,-9.9,1019.8,-99.9,22.4,2,-9.999,9,26.57
Ryofu-maru_MRI,Ry8801,83,1988,1,19,17,,25.233,137,353.7,2,298.6,2,-99,-9.9,1019.6,-99.9,23.4,2,-9.999,9,28.23
Ryofu-maru_MRI,Ry8801,84,1988,1,19,18,,25,137,353.2,2,298.6,2,-99,-9.9,1019.4,-99.9,23.5,2,-9.999,9,28.41
Ryofu-maru_MRI,Ry8801,85,1988,1,19,19,,24.983,136.983,353.7,2,298.6,2,-99,-9.9,1019.3,-99.9,23.5,2,-9.999,9,28.41
Ryofu-maru_MRI,Ry8801,86,1988,1,19,20,,24.95,136.983,353.9,2,297.2,2,-99,-9.9,1019.3,-99.9,23.4,2,-9.999,9,28.23
Ryofu-maru_MRI,Ry8801,87,1988,1,19,21,,24.933,136.967,352.8,2,296.6,2,-99,-9.9,1019.6,-99.9,23.4,2,-9.999,9,28.23
Ryofu-maru_MRI,Ry8801,88,1988,1,19,22,,24.8,136.967,353,2,301.9,2,-99,-9.9,1020.2,-99.9,23.3,2,-9.999,9,28.06
Ryofu-maru_MRI,Ry8801,89,1988,1,19,23,,24.667,136.967,351.6,2,298.1,2,-99,-9.9,1020.8,-99.9,23.7,2,-9.999,9,28.75
Ryofu-maru_MRI,Ry8801,90,1988,1,20,0,,24.533,136.967,352.1,2,303.5,2,-99,-9.9,1021.1,-99.9,22.9,2,-9.999,9,27.39
Ryofu-maru_MRI,Ry8801,91,1988,1,20,1,,24.35,136.983,351.8,2,292.6,2,-99,-9.9,1020.9,-99.9,23.5,2,-9.999,9,28.41
Ryofu-maru_MRI,Ry8801,92,1988,1,20,2,,24.183,136.983,352.2,2,293.6,2,-99,-9.9,1020.4,-99.9,23.5,2,-9.999,9,28.41
Ryofu-maru_MRI,Ry8801,93,1988,1,20,3,,24,137,353.4,2,295.4,2,-99,-9.9,1019.7,-99.9,23.6,2,-9.999,9,28.58
Ryofu-maru_MRI,Ry8801,94,1988,1,20,4,,23.933,136.983,351.3,4,293.7,2,-99,-9.9,1019.1,-99.9,23.6,2,-9.999,9,28.58
Ryofu-maru_MRI,Ry8801,95,1988,1,20,5,,23.883,136.967,352,2,293.7,2,-99,-9.9,1018.6,-99.9,23.6,2,-9.999,9,28.58
Ryofu-maru_MRI,Ry8801,96,1988,1,20,6,,23.817,136.95,352.1,2,299.3,2,-99,-9.9,1018.1,-99.9,23.4,2,-9.999,9,28.23
Ryofu-maru_MRI,Ry8801,97,1988,1,20,7,,23.617,136.967,352.5,2,297.5,2,-99,-9.9,1017.5,-99.9,23.6,2,-9.999,9,28.58
Ryofu-maru_MRI,Ry8801,98,1988,1,20,8,,23.433,136.983,353.2,2,293.5,2,-99,-9.9,1017.1,-99.9,23.6,2,-9.999,9,28.58
Ryofu-maru_MRI,Ry8801,99,1988,1,20,9,,23.233,137,351.9,2,-99.9,9,-99,-9.9,1016.9,-99.9,23.2,2,-9.999,9,27.9
Ryofu-maru_MRI,Ry8801,100,1988,1,20,10,,23.15,136.983,352.8,2,296.3,2,-99,-9.9,1017.1,-99.9,23.4,2,-9.999,9,28.23
Ryofu-maru_MRI,Ry8801,101,1988,1,20,11,,23.067,136.967,353.8,4,296.6,2,-99,-9.9,1017.4,-99.9,23.4,2,-9.999,9,28.23
Ryofu-maru_MRI,Ry8801,102,1988,1,20,12,,22.983,136.95,352,2,297.2,2,-99,-9.9,1017.5,-99.9,23.4,2,-9.999,9,28.23
Ryofu-maru_MRI,Ry8801,103,1988,1,20,13,,22.8,136.967,351.9,2,-99.9,9,-99,-9.9,1017.1,-99.9,23.4,2,-9.999,9,28.23
Ryofu-maru_MRI,Ry8801,104,1988,1,20,14,,22.633,136.983,352.8,2,-99.9,9,-99,-9.9,1016.5,-99.9,23.2,2,-9.999,9,27.9
Ryofu-maru_MRI,Ry8801,105,1988,1,20,15,,22.45,137,351.6,2,-99.9,9,-99,-9.9,1015.9,-99.9,23.4,2,-9.999,9,28.23
Ryofu-maru_MRI,Ry8801,106,1988,1,20,16,,22.3,137,352.8,2,-99.9,9,-99,-9.9,1015.6,-99.9,23.8,2,-9.999,9,28.92
Ryofu-maru_MRI,Ry8801,107,1988,1,20,17,,22.133,136.983,349.9,4,-99.9,9,-99,-9.9,1015.5,-99.9,23.9,2,-9.999,9,29.1
Ryofu-maru_MRI,Ry8801,108,1988,1,20,18,,21.983,136.983,351.7,2,298.2,2,-99,-9.9,1015.3,-99.9,24,2,-9.999,9,29.27
Ryofu-maru_MRI,Ry8801,109,1988,1,20,19,,21.867,136.967,351.1,2,288.1,4,-99,-9.9,1014.9,-99.9,24,2,-9.999,9,29.27
Ryofu-maru_MRI,Ry8801,110,1988,1,20,20,,21.767,136.967,352.4,2,302.6,2,-99,-9.9,1014.4,-99.9,23.8,2,-9.999,9,28.92
Ryofu-maru_MRI,Ry8801,111,1988,1,20,21,,21.65,136.95,351.6,2,-99.9,9,-99,-9.9,1014.4,-99.9,23.9,2,-9.999,9,29.1
Ryofu-maru_MRI,Ry8801,112,1988,1,20,22,,21.45,136.967,350.9,2,-99.9,9,-99,-9.9,1014.9,-99.9,23.9,2,-9.999,9,29.1
Ryofu-maru_MRI,Ry8801,113,1988,1,20,23,,21.25,136.983,349.9,4,301.2,2,-99,-9.9,1015.7,-99.9,24,2,-9.999,9,29.27
Ryofu-maru_MRI,Ry8801,114,1988,1,21,0,,21.05,137,349.6,4,310.1,2,-99,-9.9,1016.1,-99.9,25.2,2,-9.999,9,31.45
Ryofu-maru_MRI,Ry8801,115,1988,1,21,1,,20.967,137,352.9,4,315.6,2,-99,-9.9,1015.8,-99.9,25.3,2,-9.999,9,31.64
Ryofu-maru_MRI,Ry8801,116,1988,1,21,2,,20.867,136.983,351.8,2,315.7,2,-99,-9.9,1014.9,-99.9,25.4,2,-9.999,9,31.83
Ryofu-maru_MRI,Ry8801,117,1988,1,21,3,,20.783,136.983,351.5,2,317.9,2,-99,-9.9,1013.9,-99.9,25.9,2,-9.999,9,32.79
Ryofu-maru_MRI,Ry8801,118,1988,1,21,4,,20.6,136.983,351.1,2,318.1,2,-99,-9.9,1013,-99.9,25.9,2,-9.999,9,32.79
Ryofu-maru_MRI,Ry8801,119,1988,1,21,5,,20.417,137,352,2,316.7,2,-99,-9.9,1012.3,-99.9,25.6,2,-9.999,9,32.21
Ryofu-maru_MRI,Ry8801,120,1988,1,21,6,,20.233,137,351.8,2,319.7,2,-99,-9.9,1012,-99.9,25.6,2,-9.999,9,32.21
Ryofu-maru_MRI,Ry8801,121,1988,1,21,7,,20.167,137,352,2,317.4,2,-99,-9.9,1012.2,-99.9,25.8,2,-9.999,9,32.59
Ryofu-maru_MRI,Ry8801,122,1988,1,21,8,,20.083,137,352,2,318.6,2,-99,-9.9,1012.7,-99.9,26,2,-9.999,9,32.98
Ryofu-maru_MRI,Ry8801,123,1988,1,21,9,,20.017,137,350.1,2,316.1,2,-99,-9.9,1013.2,-99.9,25.9,2,-9.999,9,32.79
Ryofu-maru_MRI,Ry8801,124,1988,1,21,10,,20.017,137,352.3,2,317.8,2,-99,-9.9,1013.6,-99.9,25.9,2,-9.999,9,32.79
Ryofu-maru_MRI,Ry8801,125,1988,1,21,11,,20.017,136.983,350.9,2,317.3,2,-99,-9.9,1013.9,-99.9,25.9,2,-9.999,9,32.79
Ryofu-maru_MRI,Ry8801,126,1988,1,21,12,,20.017,136.983,350.8,2,316.1,2,-99,-9.9,1014,-99.9,25.9,2,-9.999,9,32.79
Ryofu-maru_MRI,Ry8801,127,1988,1,21,13,,19.9,136.983,350.2,2,318.2,2,-99,-9.9,1014.1,-99.9,26,2,-9.999,9,32.98
Ryofu-maru_MRI,Ry8801,128,1988,1,21,14,,19.767,137,350.5,2,321.7,2,-99,-9.9,1013.9,-99.9,26.4,2,-9.999,9,33.77
Ryofu-maru_MRI,Ry8801,129,1988,1,21,15,,19.65,137,351.1,2,322.3,2,-99,-9.9,1013.5,-99.9,26.5,2,-9.999,9,33.97
Ryofu-maru_MRI,Ry8801,130,1988,1,21,16,,19.45,137,350.9,2,323.2,2,-99,-9.9,1012.7,-99.9,26.5,2,-9.999,9,33.97
Ryofu-maru_MRI,Ry8801,131,1988,1,21,17,,19.267,137,350.7,2,321.6,2,-99,-9.9,1011.8,-99.9,26.5,2,-9.999,9,33.97
Ryofu-maru_MRI,Ry8801,132,1988,1,21,18,,19.067,137,350.2,2,321,2,-99,-9.9,1011.2,-99.9,26.4,2,-9.999,9,33.77
Ryofu-maru_MRI,Ry8801,133,1988,1,21,19,,18.983,137,350.1,2,321.5,2,-99,-9.9,1011.1,-99.9,26.5,2,-9.999,9,33.97
Ryofu-maru_MRI,Ry8801,134,1988,1,21,20,,18.917,136.983,350.1,2,321.5,2,-99,-9.9,1011.5,-99.9,26.5,2,-9.999,9,33.97
Ryofu-maru_MRI,Ry8801,135,1988,1,21,21,,18.833,136.983,349.6,2,319.8,2,-99,-9.9,1012.2,-99.9,26.4,2,-9.999,9,33.77
Ryofu-maru_MRI,Ry8801,136,1988,1,21,22,,18.633,136.983,350.5,2,320.1,2,-99,-9.9,1013.1,-99.9,26.2,2,-9.999,9,33.37
Ryofu-maru_MRI,Ry8801,137,1988,1,21,23,,18.417,137,350.5,2,323.7,2,-99,-9.9,1013.9,-99.9,26.4,2,-9.999,9,33.77
Ryofu-maru_MRI,Ry8801,138,1988,1,22,0,,18.217,137,349.5,2,325.4,2,-99,-9.9,1014.3,-99.9,26.5,2,-9.999,9,33.97
Ryofu-maru_MRI,Ry8801,139,1988,1,22,1,,18.1,137,351.5,2,325.3,2,-99,-9.9,1014,-99.9,27,2,-9.999,9,34.98
Ryofu-maru_MRI,Ry8801,140,1988,1,22,2,,18,137,350.5,2,331.2,2,-99,-9.9,1013.2,-99.9,27.1,2,-9.999,9,35.19
Ryofu-maru_MRI,Ry8801,141,1988,1,22,3,,17.883,137,350,2,327.6,2,-99,-9.9,1012.2,-99.9,27.2,2,-9.999,9,35.4
Ryofu-maru_MRI,Ry8801,142,1988,1,22,4,,17.683,137,351.4,2,334.5,2,-99,-9.9,1011.2,-99.9,27.6,2,-9.999,9,36.23
Ryofu-maru_MRI,Ry8801,143,1988,1,22,5,,17.483,136.983,348.6,4,330.7,2,-99,-9.9,1010.4,-99.9,27.6,2,-9.999,9,36.23
Ryofu-maru_MRI,Ry8801,144,1988,1,22,6,,17.283,136.983,350.3,2,332.8,2,-99,-9.9,1009.9,-99.9,27.6,2,-9.999,9,36.23
Ryofu-maru_MRI,Ry8801,145,1988,1,22,7,,17.183,136.983,351.7,2,334.3,2,-99,-9.9,1009.9,-99.9,27.6,2,-9.999,9,36.23
Ryofu-maru_MRI,Ry8801,146,1988,1,22,8,,17.067,136.967,350.5,2,331.1,2,-99,-9.9,1010.3,-99.9,27.5,2,-9.999,9,36.02
Ryofu-maru_MRI,Ry8801,147,1988,1,22,9,,16.967,136.967,349.4,2,331.4,2,-99,-9.9,1010.8,-99.9,27.5,2,-9.999,9,36.02
Ryofu-maru_MRI,Ry8801,148,1988,1,22,10,,16.767,136.967,349.4,2,329.6,2,-99,-9.9,1011.4,-99.9,27.5,2,-9.999,9,36.02
Ryofu-maru_MRI,Ry8801,149,1988,1,22,11,,16.55,136.983,349.3,2,328.3,2,-99,-9.9,1011.9,-99.9,27.5,2,-9.999,9,36.02
Ryofu-maru_MRI,Ry8801,150,1988,1,22,12,,16.35,136.983,348.9,2,328.4,2,-99,-9.9,1012.2,-99.9,27.5,2,-9.999,9,36.02
Ryofu-maru_MRI,Ry8801,151,1988,1,22,13,,16.233,136.983,349.6,2,328.5,2,-99,-9.9,1012.3,-99.9,27.4,2,-9.999,9,35.81
Ryofu-maru_MRI,Ry8801,152,1988,1,22,14,,16.117,137,349.9,2,328.9,2,-99,-9.9,1012.2,-99.9,27.4,2,-9.999,9,35.81
Ryofu-maru_MRI,Ry8801,153,1988,1,22,15,,16,137,350.1,2,330.4,2,-99,-9.9,1011.8,-99.9,27.4,2,-9.999,9,35.81
Ryofu-maru_MRI,Ry8801,154,1988,1,22,16,,15.8,137,349.8,2,330,2,-99,-9.9,1011.2,-99.9,27.4,2,-9.999,9,35.81
Ryofu-maru_MRI,Ry8801,155,1988,1,22,17,,15.583,137,350.3,2,330.6,2,-99,-9.9,1010.5,-99.9,27.4,2,-9.999,9,35.81
Ryofu-maru_MRI,Ry8801,156,1988,1,22,18,,15.383,137,348.8,4,330.9,2,-99,-9.9,1010.1,-99.9,27.4,2,-9.999,9,35.81
Ryofu-maru_MRI,Ry8801,157,1988,1,22,19,,15.25,137,349.7,2,329.9,2,-99,-9.9,1010,-99.9,27.4,2,-9.999,9,35.81
Ryofu-maru_MRI,Ry8801,158,1988,1,22,20,,15.133,136.983,350,2,330.1,2,-99,-9.9,1010.3,-99.9,27.4,2,-9.999,9,35.81
Ryofu-maru_MRI,Ry8801,159,1988,1,22,21,,15,136.983,350,2,330.1,2,-99,-9.9,1010.7,-99.9,27.4,2,-9.999,9,35.81
Ryofu-maru_MRI,Ry8801,160,1988,1,22,22,,14.967,136.967,349.4,2,330,2,-99,-9.9,1011.1,-99.9,27.4,2,-9.999,9,35.81
Ryofu-maru_MRI,Ry8801,161,1988,1,22,23,,14.917,136.967,350.6,2,330.8,2,-99,-9.9,1011.5,-99.9,27.4,2,-9.999,9,35.81
Ryofu-maru_MRI,Ry8801,162,1988,1,23,0,,14.883,136.95,349.8,2,331.1,2,-99,-9.9,1011.6,-99.9,27.4,2,-9.999,9,35.81
Ryofu-maru_MRI,Ry8801,163,1988,1,23,1,,14.683,136.967,-99.9,2,-99.9,9,-99,-9.9,1011.5,-99.9,27.4,2,-9.999,9,35.81
Ryofu-maru_MRI,Ry8801,164,1988,1,23,2,,14.483,136.967,-99.9,2,-99.9,9,-99,-9.9,1011.1,-99.9,27.4,2,-9.999,9,35.81
Ryofu-maru_MRI,Ry8801,165,1988,1,23,3,,14.283,136.983,-99.9,2,-99.9,9,-99,-9.9,1010.5,-99.9,27.6,2,-9.999,9,36.23
Ryofu-maru_MRI,Ry8801,166,1988,1,23,4,,14.2,136.983,350,2,334.2,2,-99,-9.9,1009.8,-99.9,27.6,2,-9.999,9,36.23
Ryofu-maru_MRI,Ry8801,167,1988,1,23,5,,14.117,136.983,350.6,2,335.9,2,-99,-9.9,1009.2,-99.9,27.7,2,-9.999,9,36.45
Ryofu-maru_MRI,Ry8801,168,1988,1,23,6,,14.033,136.983,350.6,2,335.9,2,-99,-9.9,1008.7,-99.9,27.7,2,-9.999,9,36.45
Ryofu-maru_MRI,Ry8801,169,1988,1,23,7,,13.85,136.983,350.8,2,335,2,-99,-9.9,1008.5,-99.9,27.7,2,-9.999,9,36.45
Ryofu-maru_MRI,Ry8801,170,1988,1,23,8,,13.667,137,352.2,4,337.5,2,-99,-9.9,1008.6,-99.9,27.8,2,-9.999,9,36.66
Ryofu-maru_MRI,Ry8801,171,1988,1,23,9,,13.483,137,348.7,4,332.1,2,-99,-9.9,1008.9,-99.9,27.7,2,-9.999,9,36.45
Ryofu-maru_MRI,Ry8801,172,1988,1,23,10,,13.317,137,351.2,2,334.6,2,-99,-9.9,1009.5,-99.9,27.7,2,-9.999,9,36.45
Ryofu-maru_MRI,Ry8801,173,1988,1,23,11,,13.167,137,347.4,4,334.6,2,-99,-9.9,1010.2,-99.9,27.8,2,-9.999,9,36.66
Ryofu-maru_MRI,Ry8801,174,1988,1,23,12,,13,137,352.8,4,337.3,2,-99,-9.9,1010.7,-99.9,27.8,2,-9.999,9,36.66
Ryofu-maru_MRI,Ry8801,175,1988,1,23,13,,13.017,136.983,349.2,4,334,2,-99,-9.9,1011,-99.9,27.8,2,-9.999,9,36.66
Ryofu-maru_MRI,Ry8801,176,1988,1,23,14,,13.017,136.95,350.3,2,335.1,2,-99,-9.9,1011,-99.9,27.8,2,-9.999,9,36.66
Ryofu-maru_MRI,Ry8801,177,1988,1,23,15,,13.033,136.933,349.9,2,334.8,2,-99,-9.9,1010.7,-99.9,27.8,2,-9.999,9,36.66
Ryofu-maru_MRI,Ry8801,178,1988,1,23,16,,13.033,136.917,349.6,2,334.3,2,-99,-9.9,1010.2,-99.9,27.8,2,-9.999,9,36.66
Ryofu-maru_MRI,Ry8801,179,1988,1,23,17,,13.05,136.9,350.2,2,334.8,2,-99,-9.9,1009.7,-99.9,27.8,2,-9.999,9,36.66
Ryofu-maru_MRI,Ry8801,180,1988,1,23,18,,13.05,136.883,350.9,2,335.9,2,-99,-9.9,1009.3,-99.9,27.8,2,-9.999,9,36.66
Ryofu-maru_MRI,Ry8801,181,1988,1,23,19,,13.05,136.867,350.2,2,335.9,2,-99,-9.9,1009.3,-99.9,27.8,2,-9.999,9,36.66
Ryofu-maru_MRI,Ry8801,182,1988,1,23,20,,13.067,136.867,350.4,2,334.8,2,-99,-9.9,1009.6,-99.9,27.8,2,-9.999,9,36.66
Ryofu-maru_MRI,Ry8801,183,1988,1,23,21,,13.067,136.85,350,2,334.4,2,-99,-9.9,1010.2,-99.9,27.8,2,-9.999,9,36.66
Ryofu-maru_MRI,Ry8801,184,1988,1,23,22,,13.067,136.833,350.9,2,335,2,-99,-9.9,1010.9,-99.9,27.8,2,-9.999,9,36.66
Ryofu-maru_MRI,Ry8801,185,1988,1,23,23,,13.067,136.833,350.8,2,335.1,2,-99,-9.9,1011.6,-99.9,27.7,2,-9.999,9,36.45
Ryofu-maru_MRI,Ry8801,186,1988,1,24,0,,13.067,136.817,349.1,4,333,2,-99,-9.9,1012,-99.9,27.7,2,-9.999,9,36.45
Ryofu-maru_MRI,Ry8801,187,1988,1,24,1,,13.067,136.8,351.3,2,337.7,2,-99,-9.9,1011.9,-99.9,27.8,2,-9.999,9,36.66
Ryofu-maru_MRI,Ry8801,188,1988,1,24,2,,13.083,136.8,351.1,2,337.6,2,-99,-9.9,1011.4,-99.9,27.8,2,-9.999,9,36.66
Ryofu-maru_MRI,Ry8801,189,1988,1,24,3,,13.083,136.783,350.9,2,337.9,2,-99,-9.9,1010.7,-99.9,27.8,2,-9.999,9,36.66
Ryofu-maru_MRI,Ry8801,190,1988,1,24,4,,13.083,136.767,350.4,2,337.8,2,-99,-9.9,1010,-99.9,27.8,2,-9.999,9,36.66
Ryofu-maru_MRI,Ry8801,191,1988,1,24,5,,13.083,136.767,350.1,2,338.1,2,-99,-9.9,1009.4,-99.9,27.8,2,-9.999,9,36.66
Ryofu-maru_MRI,Ry8801,192,1988,1,24,6,,13.083,136.75,350,2,339.6,2,-99,-9.9,1009,-99.9,27.9,2,-9.999,9,36.87
Ryofu-maru_MRI,Ry8801,193,1988,1,24,7,,13.017,136.817,350.7,2,341.7,2,-99,-9.9,1009,-99.9,27.9,2,-9.999,9,36.87
Ryofu-maru_MRI,Ry8801,194,1988,1,24,8,,12.933,136.9,349.2,4,335.3,2,-99,-9.9,1009.4,-99.9,27.9,2,-9.999,9,36.87
Ryofu-maru_MRI,Ry8801,195,1988,1,24,9,,12.867,136.967,350.4,2,334.5,2,-99,-9.9,1009.8,-99.9,27.8,2,-9.999,9,36.66
Ryofu-maru_MRI,Ry8801,196,1988,1,24,10,,12.85,136.967,350.1,2,336.3,2,-99,-9.9,1010.3,-99.9,27.8,2,-9.999,9,36.66
Ryofu-maru_MRI,Ry8801,197,1988,1,24,11,,12.817,136.967,350.4,2,332.7,2,-99,-9.9,1010.7,-99.9,27.8,2,-9.999,9,36.66
Ryofu-maru_MRI,Ry8801,198,1988,1,24,12,,12.8,136.967,350.5,2,335.5,2,-99,-9.9,1011.1,-99.9,27.8,2,-9.999,9,36.66
Ryofu-maru_MRI,Ry8801,199,1988,1,24,13,,12.767,136.983,350.2,2,335.3,2,-99,-9.9,1011.4,-99.9,27.8,2,-9.999,9,36.66
Ryofu-maru_MRI,Ry8801,200,1988,1,24,14,,12.75,137.017,350.1,2,334.4,2,-99,-9.9,1011.5,-99.9,27.8,2,-9.999,9,36.66
Ryofu-maru_MRI,Ry8801,201,1988,1,24,15,,12.717,137.033,350.4,2,334.2,2,-99,-9.9,1011.3,-99.9,27.8,2,-9.999,9,36.66
Ryofu-maru_MRI,Ry8801,202,1988,1,24,16,,12.717,137.017,350.5,2,335.4,2,-99,-9.9,1010.7,-99.9,27.8,2,-9.999,9,36.66
Ryofu-maru_MRI,Ry8801,203,1988,1,24,17,,12.7,136.983,350.3,2,336.5,2,-99,-9.9,1010.1,-99.9,27.8,2,-9.999,9,36.66
Ryofu-maru_MRI,Ry8801,204,1988,1,24,18,,12.7,136.967,350.8,2,336.8,2,-99,-9.9,1009.7,-99.9,27.8,2,-9.999,9,36.66
Ryofu-maru_MRI,Ry8801,205,1988,1,24,19,,12.7,136.933,350.3,2,337.2,2,-99,-9.9,1009.8,-99.9,27.8,2,-9.999,9,36.66
Ryofu-maru_MRI,Ry8801,206,1988,1,24,20,,12.683,136.917,350.1,2,338.2,2,-99,-9.9,1010.4,-99.9,27.8,2,-9.999,9,36.66
Ryofu-maru_MRI,Ry8801,207,1988,1,24,21,,12.683,136.883,350.4,2,336.2,2,-99,-9.9,1011,-99.9,27.8,2,-9.999,9,36.66
Ryofu-maru_MRI,Ry8801,208,1988,1,24,22,,12.7,136.933,351.1,2,336.4,2,-99,-9.9,1011.6,-99.9,27.7,2,-9.999,9,36.45